RH
3109 2660 2261 1967 1801 1772 1782 1788 1792 1814 1853 1891 1922 1922 1949 1977 2023 2060 2052 2019 1950 1849 1791 1732 1688 1623 1647 1704 1776 1790 1782 1783 1766 1757 1727 1665 1599 1530 1488 1474 1474 1474 1463 1463 1471 1455 1472 1486 1541 1580 1613 1661 1714 1776 1859 1953 2045 2155 2258 2343 2412 2446 2482 2477 2510 2549 2587 2652 2737 2824 2898 2997 3068 3132 3187 3207 3218 3213 3185 3134 3086 3015 2971 2976 3020 3137 3300 3474 3644 3921 4427 5026 5619 6106 6373 6467 6365 6371 6412 6441 6490 6428 6344
2371 1972 1712 1550 1518 1568 1605 1677 1721 1759 1797 1857 1898 1898 1903 1933 1956 1976 1968 1944 1915 1839 1797 1749 1657 1579 1584 1645 1711 1693 1646 1620 1591 1568 1549 1531 1499 1507 1484 1479 1479 1441 1408 1359 1342 1315 1293 1276 1276 1293 1345 1395 1466 1564 1631 1732 1839 1921 2018 2117 2205 2245 2277 2291 2292 2306 2339 2377 2438 2512 2566 2659 2736 2830 2927 3002 3097 3140 3152 3156 3132 3102 3049 3017 2996 3054 3128 3248 3374 3496 3688 4002 4484 4935 5453 5910 6203 6577 6880 7159 7398 7397 7248
1863 1696 1605 1577 1584 1638 1691 1751 1792 1827 1870 1893 1923 1929 1912 1924 1965 1990 1974 1979 1958 1927 1890 1848 1750 1659 1666 1727 1774 1690 1630 1558 1527 1523 1536 1554 1570 1615 1609 1601 1574 1514 1465 1410 1377 1366 1334 1306 1284 1273 1290 1323 1377 1446 1529 1615 1709 1772 1828 1884 1916 1937 1940 1963 1964 1956 1995 2006 2034 2083 2160 2232 2339 2480 2599 2741 2841 2910 2998 3053 3097 3127 3114 3098 3082 3076 3087 3120 3203 3309 3430 3567 3746 3968 4310 4754 5338 5921 6370 6729 7024 7125 7215
1904 1827 1791 1745 1744 1765 1790 1811 1857 1880 1932 1945 1955 1963 1985 1984 2019 2009 2022 2001 1992 1977 1976 1948 1831 1748 1767 1805 1798 1677 1600 1545 1514 1513 1535 1563 1613 1652 1660 1650 1595 1554 1527 1492 1459 1460 1449 1447 1430 1414 1414 1420 1427 1482 1515 1575 1652 1717 1769 1813 1807 1805 1805 1816 1805 1817 1828 1823 1823 1845 1883 1952 2062 2180 2307 2418 2533 2599 2704 2818 2948 3054 3109 3174 3207 3213 3209 3201 3205 3247 3342 3457 3576 3716 3925 4182 4548 4955 5362 5737 6102 6266 6349
2042 1974 1921 1877 1851 1859 1864 1866 1898 1938 1951 1980 1996 1996 2024 2035 2065 2049 2035 2020 2005 2018 2037 1977 1880 1795 1816 1827 1762 1641 1558 1525 1491 1509 1509 1542 1567 1584 1598 1599 1580 1587 1579 1588 1597 1606 1618 1627 1627 1625 1620 1620 1611 1644 1640 1662 1677 1701 1770 1818 1865 1887 1902 1938 1965 1965 1953 1948 1950 1938 1949 1979 2017 2102 2190 2275 2330 2382 2453 2564 2673 2831 2959 3096 3221 3309 3370 3397 3396 3393 3391 3448 3531 3679 3888 4118 4359 4583 4858 5151 5468 5645 5634
2116 2034 1996 1941 1929 1929 1943 1959 1979 2000 2018 2026 2048 2092 2092 2092 2097 2074 2051 2025 2005 2024 2026 1970 1870 1814 1795 1778 1690 1580 1530 1498 1481 1487 1496 1513 1521 1538 1547 1570 1584 1610 1624 1678 1704 1741 1755 1765 1768 1763 1755 1762 1765 1781 1805 1832 1834 1825 1832 1865 1905 1949 2017 2088 2148 2205 2249 2276 2267 2261 2274 2276 2289 2310 2320 2343 2315 2298 2277 2281 2320 2451 2584 2785 2950 3129 3276 3401 3504 3543 3571 3601 3643 3707 3828 4009 4256 4486 4712 4929 5146 5283 5318
2158 2102 2062 2049 2052 2082 2079 2094 2087 2093 2087 2088 2126 2165 2174 2163 2138 2118 2084 2033 2021 2032 2001 1954 1862 1793 1759 1726 1616 1531 1487 1482 1485 1474 1485 1494 1520 1537 1565 1596 1604 1630 1673 1720 1774 1788 1837 1846 1863 1859 1846 1844 1845 1853 1898 1941 1996 1993 1992 1988 2002 2034 2084 2155 2221 2298 2380 2446 2505 2557 2587 2588 2593 2580 2543 2492 2419 2299 2204 2107 2035 2056 2172 2313 2495 2666 2882 3102 3311 3498 3645 3769 3874 3909 3946 3982 4054 4251 4418 4616 4759 4959 5091
2260 2236 2230 2227 2255 2248 2237 2216 2195 2165 2174 2187 2222 2233 2241 2214 2187 2150 2116 2069 2052 2036 1988 1935 1855 1758 1719 1686 1571 1496 1469 1452 1458 1466 1495 1492 1520 1537 1568 1604 1632 1669 1705 1742 1796 1832 1858 1895 1893 1920 1912 1905 1914 1926 1968 1993 2059 2092 2120 2136 2152 2152 2163 2190 2229 2284 2334 2402 2479 2567 2624 2657 2687 2666 2627 2548 2459 2346 2229 2105 1996 1926 1911 1950 2023 2143 2309 2518 2764 3068 3376 3651 3870 3995 4039 4058 4046 4099 4137 4198 4285 4554 4748
2463 2434 2431 2427 2412 2370 2314 2259 2248 2235 2238 2259 2267 2265 2259 2265 2238 2182 2152 2113 2084 2062 2015 1962 1870 1762 1707 1651 1563 1503 1470 1454 1465 1487 1509 1526 1537 1568 1607 1649 1668 1716 1744 1791 1828 1876 1918 1952 1991 1990 2002 2011 2015 2035 2035 2061 2075 2120 2173 2203 2237 2242 2265 2270 2290 2295 2307 2343 2376 2442 2491 2544 2566 2577 2568 2529 2479 2420 2335 2255 2140 2049 1984 1943 1932 1970 2046 2128 2231 2454 2756 3065 3379 3613 3754 3813 3823 3869 3912 3979 3999 4179 4349
2588 2522 2471 2432 2395 2329 2248 2209 2170 2196 2225 2257 2257 2268 2268 2274 2236 2203 2157 2124 2067 2040 2018 1965 1923 1782 1727 1672 1612 1568 1535 1519 1535 1566 1588 1605 1632 1657 1718 1743 1804 1832 1879 1927 1966 2024 2061 2103 2134 2154 2172 2198 2185 2199 2211 2209 2207 2224 2232 2266 2308 2336 2350 2361 2373 2376 2387 2385 2407 2421 2443 2471 2505 2513 2514 2498 2498 2470 2427 2393 2336 2273 2216 2145 2109 2134 2151 2162 2192 2217 2304 2441 2632 2876 3030 3144 3213 3302 3461 3602 3757 3866 3993
2518 2429 2308 2229 2155 2107 2065 2023 2016 2062 2097 2135 2174 2196 2212 2207 2204 2172 2142 2096 2040 1980 1952 1935 1921 1855 1775 1704 1690 1658 1625 1628 1662 1701 1734 1753 1798 1845 1895 1941 2002 2060 2105 2166 2207 2266 2305 2352 2389 2404 2415 2435 2445 2462 2471 2457 2466 2467 2473 2462 2471 2504 2499 2502 2507 2502 2491 2484 2479 2487 2499 2516 2530 2530 2509 2495 2490 2488 2488 2474 2468 2461 2440 2422 2387 2407 2426 2479 2543 2516 2465 2396 2337 2417 2531 2657 2724 2767 2824 2959 3131 3332 3482
2355 2201 2082 1973 1885 1863 1845 1868 1897 1935 1976 1992 2052 2102 2107 2113 2113 2105 2073 2016 1948 1902 1892 1898 1935 1946 1897 1820 1777 1766 1742 1762 1790 1832 1871 1929 1990 2021 2101 2157 2204 2281 2342 2400 2459 2514 2573 2609 2659 2679 2693 2724 2736 2742 2751 2766 2769 2753 2756 2757 2774 2774 2779 2768 2768 2746 2729 2707 2663 2641 2631 2615 2607 2602 2585 2572 2562 2537 2554 2560 2549 2571 2581 2605 2651 2685 2710 2797 2875 2904 2891 2797 2675 2627 2635 2708 2745 2706 2639 2590 2611 2743 2912
2180 2010 1880 1783 1735 1726 1794 1865 1875 1877 1890 1917 1974 2002 2002 2001 2034 2023 2002 1972 1943 1888 1903 1937 2011 2077 2077 2055 1976 1938 1909 1913 1930 1977 2024 2074 2127 2199 2269 2327 2391 2452 2507 2560 2624 2679 2738 2802 2849 2891 2920 2951 2954 2988 2991 3002 3017 3009 3032 3024 3036 3047 3068 3085 3098 3059 3037 2993 2946 2896 2858 2814 2798 2765 2746 2718 2713 2697 2698 2676 2651 2663 2701 2745 2818 2867 2924 2985 3059 3087 3127 3135 3152 3080 3071 3055 3083 3044 2934 2795 2657 2661 2738
2115 1962 1859 1807 1805 1854 1941 1995 1950 1868 1867 1863 1892 1891 1899 1904 1981 1976 1987 1965 1954 1974 2011 2070 2136 2227 2307 2330 2298 2218 2162 2116 2106 2115 2154 2234 2292 2359 2414 2455 2520 2570 2622 2672 2730 2791 2833 2886 2934 2981 3026 3077 3108 3130 3162 3173 3204 3185 3191 3181 3195 3190 3245 3305 3329 3318 3284 3257 3224 3174 3147 3114 3087 3054 3018 2979 2952 2918 2891 2869 2836 2826 2826 2864 2907 3012 3069 3134 3202 3231 3285 3343 3402 3430 3413 3430 3448 3435 3357 3222 3042 2934 2904
2182 2064 2020 2028 2088 2120 2130 2087 2002 1957 1913 1878 1852 1834 1845 1896 1962 1962 1989 2000 2017 2080 2150 2225 2306 2387 2484 2561 2625 2598 2530 2418 2326 2302 2311 2370 2452 2521 2577 2638 2671 2712 2768 2798 2831 2876 2934 2965 3015 3052 3099 3120 3162 3210 3246 3272 3311 3315 3312 3307 3301 3307 3367 3419 3452 3429 3429 3407 3413 3375 3367 3384 3362 3351 3346 3307 3268 3249 3182 3141 3085 3074 3044 3060 3082 3159 3235 3328 3380 3412 3431 3480 3540 3587 3630 3641 3657 3648 3628 3568 3464 3314 3148
2396 2315 2299 2315 2384 2373 2277 2166 2058 1993 1951 1915 1848 1816 1834 1875 1896 1940 2006 2061 2105 2207 2304 2390 2446 2530 2616 2738 2840 2871 2860 2770 2631 2522 2476 2499 2557 2640 2709 2759 2797 2849 2899 2944 2966 2996 3024 3055 3094 3130 3159 3201 3215 3263 3311 3348 3379 3399 3410 3424 3424 3452 3482 3520 3546 3521 3488 3499 3486 3509 3515 3534 3573 3593 3604 3598 3582 3543 3507 3441 3399 3388 3379 3356 3359 3385 3432 3480 3530 3560 3598 3641 3724 3773 3791 3796 3818 3788 3760 3710 3669 3551 3424
2603 2512 2482 2477 2503 2457 2380 2255 2141 2016 1982 1932 1859 1827 1818 1831 1885 1974 2067 2145 2199 2296 2387 2479 2540 2626 2712 2804 2878 2984 3041 3058 3009 2820 2684 2604 2616 2690 2768 2817 2878 2936 2991 3033 3072 3091 3097 3136 3153 3184 3223 3248 3262 3321 3358 3395 3437 3457 3474 3500 3520 3558 3585 3621 3642 3611 3591 3575 3575 3586 3616 3672 3708 3758 3799 3822 3798 3754 3727 3711 3688 3693 3718 3698 3691 3671 3662 3667 3691 3713 3762 3820 3907 3984 4019 4041 4013 3980 3941 3895 3817 3742 3650
2673 2576 2552 2519 2502 2467 2393 2273 2170 2073 2006 1974 1914 1891 1876 1909 1935 2007 2117 2177 2266 2374 2454 2559 2595 2666 2747 2824 2899 2965 3045 3145 3227 3123 2950 2785 2682 2729 2789 2861 2922 2952 3008 3066 3094 3136 3164 3170 3178 3217 3248 3287 3306 3362 3388 3433 3448 3501 3527 3544 3580 3597 3649 3663 3685 3685 3679 3659 3659 3687 3725 3769 3829 3895 3926 3935 3908 3884 3893 3919 3952 3969 3985 3987 3989 3969 3951 3931 3945 3979 4039 4096 4145 4199 4232 4240 4235 4202 4152 4103 4026 3962 3859
2623 2563 2519 2508 2502 2434 2390 2312 2209 2109 2060 2014 1993 1968 1964 1985 2015 2076 2155 2244 2326 2434 2533 2604 2654 2701 2756 2839 2913 2968 3046 3134 3254 3318 3224 3060 2857 2824 2838 2899 2949 2971 3002 3044 3102 3141 3156 3184 3198 3231 3276 3317 3350 3406 3432 3468 3486 3531 3557 3582 3607 3641 3677 3710 3693 3693 3682 3666 3668 3671 3693 3760 3804 3864 3875 3903 3906 3954 4001 4035 4064 4070 4070 4087 4099 4148 4139 4130 4132 4172 4204 4260 4318 4328 4320 4298 4259 4259 4243 4221 4177 4138 4090
2573 2535 2522 2550 2524 2467 2384 2318 2226 2143 2096 2054 2039 2035 2060 2059 2087 2136 2207 2306 2394 2521 2592 2658 2688 2738 2804 2880 2946 3018 3095 3166 3254 3362 3373 3301 3148 3009 2965 2993 3024 3008 2995 3015 3087 3129 3160 3204 3257 3296 3324 3373 3426 3454 3501 3521 3570 3606 3643 3651 3685 3721 3759 3770 3734 3693 3688 3677 3633 3611 3612 3623 3621 3652 3685 3738 3804 3857 3899 3925 3937 3962 3990 4007 4006 4019 4018 4020 4050 4068 4086 4126 4161 4105 4036 3959 3854 3843 3865 3898 3909 3970 4063
2529 2545 2559 2581 2564 2498 2409 2312 2226 2176 2108 2087 2084 2077 2085 2124 2135 2151 2222 2360 2453 2546 2612 2681 2736 2807 2873 2961 3038 3115 3186 3246 3318 3390 3437 3420 3344 3235 3150 3118 3116 3059 3038 3036 3045 3120 3175 3261 3325 3364 3413 3463 3532 3543 3568 3608 3653 3718 3737 3760 3798 3854 3887 3880 3830 3754 3710 3655 3595 3551 3513 3486 3484 3521 3585 3625 3700 3751 3818 3854 3849 3838 3826 3776 3718 3692 3661 3666 3668 3673 3677 3678 3668 3654 3588 3508 3437 3393 3371 3370 3409 3469 3590
2522 2576 2601 2612 2615 2546 2438 2340 2248 2182 2135 2104 2100 2099 2132 2135 2157 2204 2286 2385 2487 2587 2670 2746 2832 2920 2996 3084 3166 3232 3304 3359 3402 3424 3474 3483 3473 3410 3355 3307 3255 3209 3149 3109 3099 3157 3226 3320 3401 3470 3530 3585 3624 3646 3660 3694 3745 3804 3840 3874 3945 3992 4022 4016 3928 3840 3763 3681 3605 3550 3490 3468 3482 3524 3595 3684 3774 3855 3914 3945 3955 3967 3959 3916 3830 3782 3710 3651 3609 3556 3491 3463 3459 3463 3466 3443 3427 3372 3334 3298 3259 3264 3245
2543 2585 2618 2646 2646 2591 2483 2402 2310 2229 2171 2142 2158 2171 2193 2221 2243 2306 2395 2503 2595 2663 2746 2846 2939 3021 3087 3180 3246 3307 3334 3383 3405 3438 3488 3499 3513 3535 3511 3495 3438 3379 3294 3240 3221 3246 3318 3393 3476 3580 3633 3677 3716 3727 3735 3783 3838 3865 3901 3960 4064 4116 4133 4116 4026 3916 3795 3705 3612 3585 3557 3569 3583 3625 3667 3760 3827 3928 3993 4029 4053 4084 4101 4115 4093 4051 3976 3901 3814 3763 3679 3620 3572 3546 3529 3504 3518 3496 3444 3400 3339 3292 3237
2579 2618 2665 2682 2690 2630 2586 2494 2427 2335 2268 2239 2269 2313 2335 2382 2432 2510 2588 2663 2727 2776 2848 2891 2957 3020 3074 3146 3195 3239 3272 3313 3341 3374 3429 3482 3520 3554 3576 3579 3563 3501 3435 3367 3346 3371 3427 3485 3546 3631 3692 3714 3730 3761 3795 3820 3876 3896 3937 4023 4128 4189 4178 4151 4079 3926 3797 3693 3644 3614 3626 3634 3668 3699 3735 3772 3853 3937 4018 4049 4082 4110 4137 4174 4196 4152 4082 4001 3934 3858 3774 3695 3638 3590 3557 3546 3557 3546 3502 3480 3447 3400 3328
2637 2709 2776 2787 2766 2740 2718 2657 2596 2510 2426 2397 2424 2468 2521 2604 2666 2752 2797 2835 2851 2853 2866 2890 2911 2949 2999 3032 3087 3129 3173 3204 3273 3323 3379 3437 3498 3539 3578 3595 3598 3587 3568 3525 3504 3502 3516 3555 3602 3652 3688 3716 3727 3738 3769 3791 3817 3842 3930 4008 4096 4126 4121 4070 4009 3861 3746 3656 3602 3624 3627 3661 3698 3762 3792 3854 3901 3974 4038 4088 4119 4121 4157 4196 4222 4211 4158 4071 4007 3951 3863 3760 3686 3621 3607 3585 3618 3618 3629 3623 3618 3579 3537
2768 2879 2932 2954 2920 2921 2902 2867 2806 2689 2589 2577 2610 2657 2732 2796 2886 2913 2938 2951 2907 2895 2869 2874 2881 2898 2909 2959 2989 3053 3126 3195 3248 3318 3382 3451 3501 3571 3618 3662 3707 3726 3732 3708 3676 3618 3591 3601 3607 3626 3660 3665 3657 3674 3672 3695 3709 3770 3847 3910 3971 3999 3977 3936 3898 3805 3679 3597 3556 3587 3615 3651 3710 3793 3857 3921 3969 4033 4080 4139 4163 4157 4196 4227 4244 4244 4205 4146 4110 4040 3973 3882 3809 3734 3716 3685 3688 3721 3715 3723 3727 3716 3705
2954 3068 3126 3148 3128 3140 3111 3062 2979 2820 2749 2745 2781 2834 2904 2963 3016 3027 3009 2982 2942 2916 2904 2895 2888 2910 2932 2960 3002 3066 3130 3213 3291 3350 3428 3495 3554 3612 3690 3743 3793 3835 3843 3833 3804 3733 3665 3616 3580 3606 3618 3618 3607 3633 3620 3634 3640 3684 3739 3805 3844 3866 3849 3847 3858 3776 3683 3595 3554 3571 3597 3672 3741 3833 3908 3972 4039 4103 4162 4203 4216 4227 4249 4277 4260 4251 4218 4209 4181 4128 4080 3994 3957 3899 3851 3823 3798 3783 3768 3773 3764 3777 3783
3201 3273 3326 3357 3376 3340 3283 3195 3059 2934 2886 2891 2933 2995 3045 3104 3135 3117 3085 3059 3019 3010 2989 2980 2965 2976 2981 3031 3081 3117 3181 3251 3318 3374 3421 3497 3562 3615 3673 3721 3779 3832 3833 3842 3818 3767 3699 3640 3607 3600 3609 3604 3590 3602 3616 3623 3615 3642 3680 3724 3752 3757 3774 3807 3840 3790 3713 3648 3618 3619 3638 3700 3780 3888 3963 4027 4091 4139 4209 4248 4252 4285 4307 4310 4298 4290 4273 4264 4230 4191 4172 4119 4080 4049 4010 3980 3924 3904 3879 3864 3844 3810 3812
3432 3490 3543 3574 3556 3510 3421 3302 3150 3054 3034 3082 3124 3171 3202 3255 3261 3252 3243 3220 3191 3187 3178 3146 3145 3130 3135 3163 3174 3229 3249 3296 3333 3378 3407 3443 3508 3539 3593 3629 3677 3714 3740 3755 3764 3727 3701 3666 3653 3651 3657 3677 3675 3648 3670 3662 3663 3663 3651 3662 3673 3690 3734 3794 3854 3838 3783 3706 3685 3688 3716 3763 3849 3938 4029 4093 4132 4188 4227 4247 4280 4330 4335 4357 4373 4376 4387 4370 4350 4300 4275 4275 4236 4214 4175 4145 4105 4075 4036 3999 3980 3935 3915
3657 3677 3736 3772 3743 3660 3555 3413 3261 3213 3241 3289 3337 3367 3401 3432 3437 3437 3445 3438 3435 3440 3428 3385 3345 3324 3309 3317 3328 3342 3342 3359 3368 3372 3387 3412 3427 3470 3495 3538 3552 3595 3607 3650 3676 3672 3682 3680 3706 3715 3721 3758 3772 3745 3745 3712 3668 3668 3652 3624 3618 3629 3684 3755 3816 3849 3805 3784 3759 3782 3804 3851 3943 4051 4131 4165 4212 4238 4266 4307 4324 4346 4396 4418 4440 4460 4487 4479 4451 4434 4428 4406 4395 4362 4343 4321 4287 4257 4218 4187 4137 4098 4051
3833 3875 3934 3950 3929 3813 3683 3524 3401 3404 3435 3471 3505 3530 3563 3597 3611 3650 3645 3666 3666 3655 3634 3599 3537 3477 3434 3417 3403 3412 3401 3396 3393 3394 3389 3404 3407 3439 3448 3463 3486 3509 3532 3547 3584 3627 3661 3693 3735 3766 3792 3809 3818 3824 3791 3747 3703 3670 3643 3637 3604 3598 3626 3691 3763 3818 3821 3821 3827 3847 3914 3955 4047 4127 4241 4289 4306 4321 4340 4385 4405 4421 4449 4482 4482 4507 4529 4540 4540 4540 4551 4562 4540 4526 4515 4476 4451 4412 4373 4343 4282 4229 4174
4020 4070 4140 4137 4083 3937 3767 3609 3524 3562 3565 3619 3635 3655 3666 3686 3706 3737 3754 3771 3777 3771 3739 3682 3614 3521 3475 3438 3427 3405 3411 3420 3409 3415 3404 3429 3427 3439 3465 3479 3494 3520 3545 3571 3607 3661 3687 3729 3766 3791 3806 3837 3854 3854 3805 3789 3745 3712 3679 3652 3641 3607 3624 3663 3737 3787 3848 3884 3904 3943 4018 4079 4148 4223 4290 4355 4380 4406 4423 4454 4482 4488 4507 4524 4535 4535 4557 4579 4579 4610 4621 4643 4654 4648 4643 4634 4601 4581 4531 4490 4440 4359 4293
4205 4290 4321 4296 4179 3996 3829 3702 3649 3679 3705 3691 3698 3706 3712 3727 3736 3762 3765 3794 3794 3777 3746 3705 3615 3521 3455 3438 3424 3413 3427 3444 3455 3455 3477 3494 3524 3536 3562 3598 3624 3641 3649 3677 3708 3734 3765 3799 3813 3827 3823 3848 3860 3854 3846 3836 3787 3762 3746 3735 3713 3705 3711 3745 3795 3847 3924 3983 4013 4072 4122 4208 4247 4289 4337 4390 4416 4441 4462 4495 4515 4548 4562 4579 4579 4590 4599 4610 4632 4660 4702 4707 4729 4746 4757 4743 4726 4681 4651 4606 4565 4498 4429
4403 4476 4471 4391 4232 4060 3919 3843 3838 3884 3866 3848 3832 3807 3800 3782 3783 3795 3804 3788 3805 3811 3794 3754 3691 3591 3513 3479 3470 3480 3503 3550 3589 3611 3638 3660 3693 3704 3746 3766 3811 3837 3845 3856 3873 3868 3876 3882 3869 3864 3870 3862 3879 3882 3899 3903 3893 3891 3866 3887 3865 3882 3888 3896 3944 3994 4063 4127 4188 4241 4288 4344 4369 4369 4386 4417 4454 4476 4479 4502 4516 4561 4587 4590 4615 4643 4660 4680 4702 4711 4750 4755 4766 4788 4802 4794 4788 4777 4757 4718 4682 4643 4577
4568 4599 4570 4442 4269 4121 4055 4069 4126 4150 4113 4073 4035 4000 3960 3920 3904 3875 3868 3871 3858 3891 3896 3893 3855 3771 3707 3657 3652 3643 3710 3746 3812 3854 3881 3914 3922 3933 3944 3958 3992 4007 4021 4019 4019 4025 4009 3987 3976 3940 3935 3930 3928 3951 3965 3985 3995 4015 4035 4041 4051 4062 4076 4104 4118 4149 4219 4266 4325 4386 4439 4500 4516 4495 4473 4478 4500 4511 4505 4520 4525 4551 4571 4594 4609 4643 4677 4702 4728 4737 4754 4776 4784 4807 4807 4812 4823 4840 4828 4825 4780 4750 4711
4634 4654 4593 4479 4327 4230 4237 4312 4449 4463 4423 4361 4299 4228 4185 4134 4083 4023 3994 3989 3993 4040 4067 4113 4104 4078 4002 3952 3924 3948 3954 3984 4026 4095 4134 4157 4145 4128 4112 4112 4107 4132 4136 4151 4146 4132 4110 4088 4045 4040 4018 3991 3988 4003 4029 4057 4094 4112 4146 4155 4180 4186 4174 4196 4218 4266 4326 4371 4429 4468 4504 4555 4596 4602 4570 4547 4538 4549 4538 4554 4532 4543 4549 4586 4601 4621 4634 4676 4696 4711 4728 4765 4784 4807 4810 4821 4827 4832 4840 4834 4829 4801 4781
4616 4623 4567 4474 4358 4325 4416 4550 4721 4734 4688 4626 4555 4491 4418 4367 4305 4254 4216 4209 4215 4284 4337 4402 4421 4387 4323 4275 4239 4226 4224 4211 4207 4234 4262 4293 4294 4283 4244 4191 4169 4166 4179 4177 4170 4173 4160 4116 4111 4089 4073 4051 4038 4052 4070 4090 4107 4127 4155 4179 4210 4229 4237 4237 4275 4323 4381 4418 4457 4496 4515 4552 4595 4626 4629 4624 4613 4599 4593 4570 4581 4581 4587 4587 4582 4574 4589 4609 4632 4655 4687 4702 4745 4779 4796 4807 4813 4790 4790 4787 4781 4776 4765
4604 4577 4534 4466 4402 4440 4562 4722 4887 4918 4903 4829 4789 4733 4666 4596 4529 4495 4454 4468 4488 4560 4624 4685 4718 4671 4574 4515 4474 4470 4452 4411 4373 4343 4315 4306 4298 4316 4294 4244 4191 4152 4130 4109 4112 4116 4120 4096 4094 4077 4073 4068 4065 4071 4085 4102 4102 4105 4134 4165 4183 4205 4233 4283 4327 4379 4418 4438 4488 4504 4535 4560 4584 4624 4660 4680 4687 4642 4637 4625 4625 4620 4642 4654 4673 4629 4607 4602 4619 4627 4648 4669 4709 4741 4761 4764 4753 4739 4722 4705 4700 4700 4680
4579 4554 4511 4493 4502 4594 4720 4857 4986 5061 5055 5023 4972 4930 4869 4813 4724 4685 4664 4687 4735 4765 4829 4863 4874 4806 4718 4618 4577 4562 4548 4513 4484 4432 4357 4309 4260 4249 4250 4217 4173 4114 4066 4011 3995 3987 3985 4017 4038 4052 4050 4084 4082 4107 4129 4157 4151 4157 4141 4133 4145 4176 4220 4284 4354 4418 4471 4493 4515 4542 4581 4595 4612 4655 4695 4737 4746 4735 4697 4680 4680 4691 4703 4712 4732 4732 4710 4668 4641 4629 4657 4672 4693 4699 4726 4740 4724 4702 4700 4678 4667 4647 4594
4595 4575 4582 4645 4733 4793 4905 4995 5120 5134 5146 5155 5137 5076 5018 4932 4843 4809 4802 4826 4840 4868 4872 4873 4859 4786 4701 4624 4567 4527 4521 4512 4517 4485 4448 4362 4291 4231 4184 4148 4098 4073 4014 3944 3896 3876 3879 3885 3920 3968 4010 4050 4104 4140 4177 4210 4232 4227 4188 4182 4168 4182 4210 4286 4342 4435 4493 4552 4604 4626 4648 4682 4718 4746 4760 4797 4851 4862 4829 4779 4774 4763 4757 4774 4800 4803 4798 4798 4765 4745 4712 4701 4701 4697 4698 4710 4698 4707 4712 4721 4682 4645 4600
4700 4710 4812 4938 5084 5097 5085 5089 5140 5140 5160 5209 5241 5177 5070 4959 4873 4866 4848 4868 4872 4828 4807 4763 4738 4697 4626 4566 4481 4441 4463 4488 4531 4540 4514 4463 4395 4318 4233 4143 4106 4053 4038 3979 3942 3897 3849 3834 3814 3851 3898 3971 4045 4126 4182 4238 4275 4286 4308 4285 4266 4243 4260 4302 4350 4423 4524 4605 4684 4742 4765 4823 4893 4924 4940 4959 4984 5045 5001 4937 4915 4879 4834 4851 4910 4865 4843 4860 4902 4858 4821 4774 4718 4703 4685 4666 4665 4684 4713 4726 4721 4645 4600
4873 4955 5116 5298 5402 5384 5332 5302 5276 5241 5254 5267 5280 5163 5030 4884 4819 4832 4852 4845 4810 4757 4691 4664 4629 4607 4556 4488 4402 4405 4430 4471 4551 4580 4566 4558 4541 4484 4405 4328 4249 4203 4165 4137 4094 4074 4026 3957 3903 3846 3842 3884 3948 4032 4108 4192 4240 4295 4326 4353 4364 4366 4366 4372 4380 4456 4546 4636 4737 4847 4918 4996 5033 5109 5152 5163 5159 5188 5173 5159 5122 5045 4970 4959 5003 4970 4911 4861 4901 4954 4965 4915 4790 4747 4692 4654 4621 4650 4663 4659 4644 4594 4546
4946 5110 5329 5543 5641 5620 5582 5543 5462 5388 5329 5278 5197 5013 4897 4808 4760 4787 4788 4791 4748 4647 4584 4570 4577 4555 4530 4468 4434 4423 4466 4523 4584 4624 4645 4643 4660 4634 4609 4566 4520 4463 4397 4334 4285 4282 4262 4226 4171 4066 4003 3943 3945 4004 4062 4149 4207 4262 4317 4352 4394 4427 4449 4449 4449 4518 4588 4679 4794 4935 5040 5114 5179 5243 5318 5367 5380 5333 5365 5360 5362 5298 5217 5130 5069 5046 5015 4951 4929 4988 5036 5032 4956 4904 4813 4701 4599 4609 4627 4615 4588 4539 4506
4874 5080 5349 5607 5766 5734 5690 5613 5520 5421 5295 5153 4977 4852 4769 4743 4743 4780 4773 4768 4682 4581 4548 4566 4627 4648 4640 4593 4545 4509 4523 4541 4616 4651 4674 4698 4703 4714 4725 4719 4719 4687 4624 4559 4485 4462 4439 4439 4422 4371 4309 4235 4166 4143 4170 4213 4291 4301 4320 4335 4353 4405 4475 4509 4555 4588 4641 4745 4860 4996 5138 5232 5310 5366 5421 5490 5573 5538 5519 5553 5557 5559 5494 5390 5266 5162 5131 5137 5109 5037 5041 5071 5071 5033 4963 4804 4602 4567 4577 4564 4540 4532 4505
4791 5039 5330 5588 5750 5701 5613 5525 5415 5267 5098 4950 4816 4735 4735 4748 4770 4816 4820 4767 4669 4599 4592 4653 4756 4802 4798 4761 4668 4587 4548 4557 4597 4635 4647 4681 4690 4718 4729 4734 4734 4728 4697 4643 4575 4524 4504 4487 4487 4510 4504 4470 4447 4395 4396 4395 4445 4446 4449 4397 4367 4400 4470 4543 4625 4666 4720 4817 4910 5065 5190 5305 5387 5429 5473 5533 5632 5693 5710 5725 5759 5724 5683 5612 5485 5329 5228 5216 5254 5193 5159 5144 5132 5077 4985 4845 4674 4620 4593 4563 4567 4577 4555
4907 5165 5406 5587 5620 5549 5472 5368 5220 5042 4923 4816 4735 4740 4764 4802 4874 4921 4905 4849 4765 4721 4734 4767 4856 4913 4916 4869 4764 4676 4603 4547 4575 4581 4582 4598 4607 4627 4649 4671 4691 4696 4660 4623 4591 4540 4509 4511 4499 4525 4559 4599 4616 4590 4580 4571 4575 4581 4565 4515 4454 4476 4529 4595 4712 4780 4842 4921 4999 5132 5248 5366 5413 5446 5485 5548 5648 5786 5863 5920 5929 5876 5814 5734 5654 5529 5391 5290 5268 5320 5323 5280 5226 5118 5000 4888 4800 4753 4703 4665 4648 4627 4614
5160 5407 5544 5582 5516 5434 5330 5190 5032 4898 4814 4774 4760 4787 4835 4918 5007 5036 5014 4978 4930 4917 4938 4976 5029 5063 5059 5016 4942 4854 4738 4648 4575 4575 4557 4553 4546 4572 4598 4634 4668 4651 4625 4621 4590 4591 4599 4606 4597 4605 4648 4688 4729 4746 4740 4699 4664 4626 4592 4534 4461 4474 4536 4641 4790 4913 5018 5070 5129 5193 5278 5351 5402 5452 5510 5585 5668 5809 5939 6060 6126 6084 5948 5830 5742 5677 5573 5457 5356 5346 5315 5286 5291 5206 5081 4989 4930 4868 4813 4791 4723 4668 4627
5432 5571 5566 5500 5396 5300 5208 5074 4946 4867 4833 4799 4834 4877 4963 5068 5150 5176 5178 5155 5169 5189 5207 5223 5222 5235 5217 5150 5065 4938 4848 4769 4713 4663 4636 4623 4616 4626 4618 4638 4638 4632 4618 4614 4588 4607 4634 4680 4695 4709 4734 4785 4865 4916 4916 4854 4777 4668 4560 4457 4356 4340 4413 4591 4853 5030 5132 5186 5202 5273 5323 5382 5436 5498 5588 5663 5749 5831 5975 6099 6178 6201 6122 5985 5851 5767 5674 5579 5455 5362 5284 5240 5262 5182 5124 5064 5023 4918 4840 4799 4743 4749 4690
5585 5569 5473 5366 5245 5175 5105 5060 5001 4967 4944 4918 4959 5030 5143 5233 5317 5334 5345 5355 5360 5384 5371 5354 5324 5297 5196 5074 4939 4860 4831 4811 4785 4774 4741 4728 4723 4710 4666 4644 4633 4613 4591 4582 4554 4537 4570 4614 4682 4720 4759 4820 4906 4973 5021 5045 5013 4883 4747 4605 4459 4307 4331 4537 4901 5105 5221 5257 5307 5360 5424 5494 5530 5610 5706 5793 5880 5934 6044 6145 6182 6222 6203 6115 5987 5894 5766 5634 5519 5443 5379 5338 5313 5218 5149 5082 5049 4986 4907 4832 4824 4860 4843
5564 5437 5327 5207 5130 5099 5080 5113 5135 5160 5167 5177 5159 5240 5340 5432 5480 5491 5485 5491 5473 5418 5360 5296 5234 5188 5040 4898 4772 4782 4778 4805 4833 4811 4817 4795 4762 4720 4687 4656 4606 4590 4568 4546 4530 4480 4485 4507 4585 4639 4712 4769 4840 4923 5020 5139 5239 5230 5168 5066 4929 4590 4447 4579 5039 5238 5326 5354 5398 5436 5494 5547 5640 5745 5880 6001 6054 6098 6171 6224 6205 6231 6199 6168 6078 5985 5848 5692 5532 5519 5486 5450 5378 5303 5219 5118 5045 5039 4986 4951 4921 4977 4987
5411 5295 5218 5159 5127 5172 5220 5287 5373 5462 5480 5475 5420 5444 5515 5584 5601 5599 5591 5548 5469 5349 5245 5154 5113 5032 4928 4837 4794 4848 4873 4876 4887 4860 4827 4782 4735 4699 4671 4646 4601 4563 4513 4480 4442 4415 4421 4448 4512 4591 4666 4759 4845 4921 5043 5183 5365 5499 5568 5557 5436 4932 4616 4638 5169 5396 5485 5524 5546 5551 5601 5645 5727 5902 6043 6138 6177 6240 6291 6314 6312 6269 6229 6171 6087 5976 5881 5753 5595 5551 5518 5483 5409 5337 5245 5177 5096 5039 5030 5023 5041 5047 5024
5224 5163 5162 5208 5338 5431 5485 5554 5632 5717 5740 5724 5657 5624 5643 5674 5680 5690 5627 5581 5466 5352 5252 5163 5113 5037 4983 4950 4952 4999 5010 4991 4928 4873 4826 4751 4707 4684 4651 4615 4543 4490 4441 4386 4356 4351 4365 4426 4470 4585 4675 4801 4929 5066 5199 5336 5459 5576 5641 5612 5434 4836 4536 4642 5221 5530 5705 5745 5751 5748 5742 5782 5870 6037 6149 6232 6293 6352 6402 6420 6396 6354 6320 6235 6110 5998 5907 5799 5672 5591 5526 5460 5400 5345 5270 5205 5147 5130 5102 5119 5167 5173 5083
5104 5149 5303 5525 5712 5743 5766 5782 5845 5859 5876 5854 5798 5777 5771 5739 5735 5745 5704 5639 5569 5515 5446 5387 5345 5244 5151 5140 5168 5155 5127 5059 4950 4863 4788 4724 4630 4581 4537 4488 4427 4367 4318 4277 4268 4271 4313 4379 4470 4571 4709 4851 4994 5145 5277 5351 5354 5309 5197 5011 4766 4384 4318 4611 5237 5641 5870 5960 5954 5921 5919 5960 6100 6185 6268 6340 6438 6499 6523 6501 6455 6416 6354 6249 6107 6002 5878 5777 5694 5639 5559 5454 5383 5347 5314 5270 5250 5253 5270 5307 5349 5314 5157
5176 5405 5682 5904 5963 5908 5885 5884 5914 5920 5920 5889 5867 5841 5806 5788 5780 5812 5830 5818 5780 5802 5819 5795 5668 5517 5408 5345 5335 5279 5171 5041 4899 4776 4655 4575 4484 4413 4362 4316 4296 4278 4282 4259 4212 4223 4264 4318 4398 4476 4557 4686 4834 4971 5051 5064 4962 4763 4498 4261 4041 3979 4166 4591 5270 5750 6029 6161 6155 6113 6112 6176 6342 6362 6434 6510 6587 6592 6578 6530 6455 6385 6292 6170 6096 5955 5828 5748 5727 5705 5623 5523 5465 5448 5434 5434 5423 5420 5462 5505 5573 5443 5210
5630 5899 6051 6115 6029 5923 5863 5849 5881 5877 5905 5884 5881 5871 5846 5864 5882 5950 6012 6052 6122 6288 6285 6190 5976 5799 5643 5530 5428 5320 5153 4964 4786 4658 4555 4444 4316 4257 4228 4227 4241 4246 4221 4180 4095 4018 3962 3957 3990 4043 4122 4226 4357 4477 4520 4507 4362 4169 3968 3802 3721 3857 4191 4704 5367 5859 6183 6324 6332 6287 6271 6341 6496 6532 6560 6598 6631 6611 6558 6477 6385 6276 6180 6112 6053 5926 5865 5853 5859 5765 5680 5608 5599 5634 5644 5668 5677 5725 5779 5816 5820 5684 5451
6249 6296 6271 6171 6018 5893 5834 5788 5796 5834 5856 5854 5865 5863 5885 5928 6010 6123 6259 6443 6726 6809 6710 6494 6259 6038 5842 5668 5490 5328 5128 4931 4751 4660 4530 4422 4289 4181 4112 4057 3987 3881 3771 3657 3517 3413 3341 3319 3350 3407 3505 3604 3720 3800 3841 3837 3779 3700 3655 3627 3687 3955 4368 4912 5504 5954 6253 6414 6425 6352 6348 6391 6490 6555 6576 6576 6556 6536 6466 6385 6310 6235 6199 6137 6096 6051 6072 6063 6017 5873 5754 5695 5735 5814 5874 5929 6026 6094 6175 6180 6141 6028 5839
6569 6452 6302 6151 5993 5881 5818 5791 5815 5843 5857 5841 5824 5830 5900 6001 6145 6330 6622 6960 7279 7070 6885 6689 6435 6184 5940 5720 5511 5330 5129 4949 4785 4670 4529 4382 4221 4010 3791 3565 3351 3135 2948 2819 2749 2736 2726 2755 2810 2881 2964 3083 3165 3236 3278 3331 3360 3422 3493 3635 3804 4173 4603 5104 5607 5977 6252 6413 6441 6380 6347 6351 6390 6451 6499 6483 6444 6396 6372 6328 6301 6285 6258 6250 6239 6212 6190 6144 6067 5993 5945 5949 6029 6118 6195 6250 6330 6422 6488 6526 6523 6505 6387
6478 6363 6249 6141 6024 5937 5902 5898 5948 5970 5976 5937 5906 5893 5963 6101 6251 6623 6994 7252 7212 7011 6934 6801 6498 6215 5920 5633 5406 5246 5093 4926 4767 4606 4417 4193 3946 3595 3284 2985 2731 2533 2396 2335 2334 2380 2451 2495 2542 2617 2692 2787 2845 2944 3010 3090 3198 3329 3504 3738 4029 4418 4832 5262 5694 6011 6240 6376 6408 6375 6320 6276 6286 6304 6330 6323 6296 6291 6324 6341 6331 6309 6293 6307 6307 6274 6216 6183 6164 6205 6259 6341 6426 6459 6488 6543 6620 6713 6795 6861 6921 6910 6789
6274 6240 6221 6167 6102 6041 6034 6070 6135 6188 6232 6248 6254 6247 6271 6312 6458 6848 7124 7193 6957 6956 6895 6745 6418 6018 5672 5376 5207 5099 4977 4834 4696 4516 4261 3960 3637 3299 3001 2749 2538 2429 2383 2368 2352 2377 2443 2490 2529 2587 2640 2693 2741 2838 2958 3070 3209 3399 3645 3941 4288 4676 5055 5452 5822 6084 6251 6368 6364 6331 6276 6233 6165 6185 6192 6224 6248 6311 6326 6323 6307 6309 6348 6380 6411 6391 6355 6360 6435 6530 6618 6689 6678 6652 6724 6805 6910 6978 7038 7115 7126 7030 6882
6149 6196 6207 6199 6176 6130 6149 6220 6280 6421 6589 6757 6927 6939 6894 6848 6887 6972 6994 6979 6941 6954 6815 6515 6138 5696 5348 5088 4968 4926 4833 4707 4573 4375 4107 3831 3572 3306 3071 2868 2723 2628 2547 2532 2499 2512 2532 2579 2594 2642 2690 2735 2784 2890 3035 3180 3373 3611 3910 4230 4591 4967 5335 5679 5974 6163 6294 6371 6365 6280 6209 6176 6125 6154 6200 6263 6320 6315 6309 6301 6334 6352 6413 6479 6506 6525 6568 6620 6722 6845 6926 6954 6901 6923 7016 7109 7145 7177 7210 7199 7175 7115 6998
6048 6129 6171 6187 6173 6158 6190 6278 6366 6616 6945 7282 7515 7615 7571 7419 7249 7038 6961 6937 6952 6934 6708 6396 6066 5696 5336 5066 4866 4734 4634 4549 4448 4280 4090 3885 3668 3453 3222 3024 2880 2799 2754 2702 2658 2684 2685 2693 2692 2738 2773 2857 2959 3082 3241 3437 3677 3974 4305 4647 5020 5348 5660 5935 6177 6309 6363 6399 6377 6276 6216 6182 6170 6199 6241 6284 6347 6347 6358 6363 6407 6503 6524 6524 6477 6532 6620 6735 6833 7022 7153 7219 7197 7202 7254 7281 7254 7259 7276 7285 7290 7307 7219